Wetterdaten: Donnerstag, 10.12.2015
Datum Zeit Auen-Temp. Temp gefhlt Luftfeuchte Luftdruck Regen Wind Richtung Richtung Taupunkt Windben
10.12.2015 00:00 -0,9 C -1,4 C 90 % 1038,7 hPa 0,0 mm 0,0 km/h (0 Bft) S 180 -2,3 C 0,0 km/h (0 Bft)
10.12.2015 00:05 -1,2 C -1,7 C 90 % 1038,7 hPa 0,0 mm 0,0 km/h (0 Bft) S 180 -2,6 C 0,0 km/h (0 Bft)
10.12.2015 00:10 -1,4 C -1,9 C 90 % 1038,7 hPa 0,0 mm 0,0 km/h (0 Bft) W-SW 247 -2,8 C 0,0 km/h (0 Bft)
10.12.2015 00:12 -1,4 C -1,9 C 90 % 1038,7 hPa 0,0 mm 0,0 km/h (0 Bft) W-SW 247 -2,8 C 0,0 km/h (0 Bft)
10.12.2015 00:15 -1,3 C -1,8 C 90 % 1038,8 hPa 0,0 mm 0,0 km/h (0 Bft) S-SO 157 -2,7 C 0,0 km/h (0 Bft)
10.12.2015 00:20 -1,2 C -1,8 C 90 % 1038,8 hPa 0,0 mm 0,0 km/h (0 Bft) W-SW 247 -2,6 C 0,0 km/h (0 Bft)
10.12.2015 00:25 -1,2 C -1,8 C 90 % 1038,8 hPa 0,0 mm 0,0 km/h (0 Bft) W-SW 247 -2,6 C 0,0 km/h (0 Bft)
10.12.2015 00:30 -1,5 C -2,0 C 90 % 1038,8 hPa 0,0 mm 0,0 km/h (0 Bft) W-SW 247 -2,9 C 0,0 km/h (0 Bft)
10.12.2015 00:35 -1,4 C -2,0 C 90 % 1038,5 hPa 0,0 mm 0,0 km/h (0 Bft) S 180 -2,8 C 0,0 km/h (0 Bft)
10.12.2015 00:40 -1,8 C -2,2 C 90 % 1038,5 hPa 0,0 mm 0,0 km/h (0 Bft) S-SO 157 -3,2 C 0,0 km/h (0 Bft)
10.12.2015 00:45 -1,8 C -2,2 C 90 % 1038,5 hPa 0,0 mm 0,0 km/h (0 Bft) S-SO 157 -3,2 C 0,0 km/h (0 Bft)
10.12.2015 00:50 -1,6 C -2,1 C 90 % 1038,5 hPa 0,0 mm 0,0 km/h (0 Bft) S-SO 157 -3,0 C 0,0 km/h (0 Bft)
10.12.2015 00:55 -1,7 C -2,2 C 90 % 1038,4 hPa 0,0 mm 0,0 km/h (0 Bft) S-SO 157 -3,1 C 0,0 km/h (0 Bft)
10.12.2015 01:00 -1,9 C -2,3 C 90 % 1038,4 hPa 0,0 mm 0,0 km/h (0 Bft) S-SO 157 -3,3 C 0,0 km/h (0 Bft)
10.12.2015 01:05 -2,1 C -2,5 C 90 % 1038,4 hPa 0,0 mm 0,0 km/h (0 Bft) S-SO 157 -3,5 C 0,0 km/h (0 Bft)
10.12.2015 01:10 -2,0 C -2,4 C 90 % 1038,4 hPa 0,0 mm 0,0 km/h (0 Bft) S-SO 157 -3,4 C 0,0 km/h (0 Bft)
10.12.2015 01:15 -2,2 C -2,6 C 90 % 1038,2 hPa 0,0 mm 0,0 km/h (0 Bft) S-SO 157 -3,6 C 0,0 km/h (0 Bft)
10.12.2015 01:20 -2,0 C -2,5 C 90 % 1038,2 hPa 0,0 mm 0,0 km/h (0 Bft) S-SO 157 -3,4 C 0,0 km/h (0 Bft)
10.12.2015 01:25 -2,4 C -2,9 C 90 % 1038,2 hPa 0,0 mm 0,0 km/h (0 Bft) W-SW 247 -3,8 C 0,0 km/h (0 Bft)
10.12.2015 01:30 -2,6 C -3,1 C 90 % 1038,2 hPa 0,0 mm 0,0 km/h (0 Bft) W-SW 247 -4,0 C 0,0 km/h (0 Bft)
10.12.2015 01:35 -2,5 C -3,0 C 90 % 1038,0 hPa 0,0 mm 0,0 km/h (0 Bft) W-SW 247 -3,9 C 0,0 km/h (0 Bft)
10.12.2015 01:40 -2,5 C -3,0 C 90 % 1038,0 hPa 0,0 mm 0,0 km/h (0 Bft) W-SW 247 -3,9 C 0,0 km/h (0 Bft)
10.12.2015 01:45 -2,5 C -3,0 C 90 % 1038,0 hPa 0,0 mm 0,0 km/h (0 Bft) W-SW 247 -3,9 C 0,0 km/h (0 Bft)
10.12.2015 01:50 -2,6 C -3,0 C 90 % 1038,0 hPa 0,0 mm 0,0 km/h (0 Bft) W-SW 247 -4,0 C 0,0 km/h (0 Bft)
10.12.2015 01:55 -2,7 C -3,1 C 90 % 1038,0 hPa 0,0 mm 0,0 km/h (0 Bft) W-SW 247 -4,1 C 0,0 km/h (0 Bft)
10.12.2015 02:00 -3,0 C -3,3 C 90 % 1038,0 hPa 0,0 mm 0,0 km/h (0 Bft) W-SW 247 -4,4 C 0,0 km/h (0 Bft)
10.12.2015 02:05 -3,1 C -3,4 C 90 % 1038,0 hPa 0,0 mm 0,0 km/h (0 Bft) W-SW 247 -4,5 C 0,0 km/h (0 Bft)
10.12.2015 02:10 -2,9 C -3,3 C 90 % 1038,0 hPa 0,0 mm 0,0 km/h (0 Bft) W-SW 247 -4,3 C 0,0 km/h (0 Bft)
10.12.2015 02:15 -2,9 C -3,3 C 90 % 1037,9 hPa 0,0 mm 0,0 km/h (0 Bft) W-SW 247 -4,3 C 0,0 km/h (0 Bft)
10.12.2015 02:20 -2,6 C -3,1 C 90 % 1037,9 hPa 0,0 mm 0,0 km/h (0 Bft) S 180 -4,0 C 0,0 km/h (0 Bft)
10.12.2015 02:25 -2,5 C -3,0 C 90 % 1037,9 hPa 0,0 mm 0,0 km/h (0 Bft) S 180 -3,9 C 0,0 km/h (0 Bft)
10.12.2015 02:30 -2,8 C -3,2 C 90 % 1037,9 hPa 0,0 mm 0,0 km/h (0 Bft) W-SW 247 -4,2 C 0,0 km/h (0 Bft)
10.12.2015 02:35 -3,1 C -3,4 C 90 % 1037,8 hPa 0,0 mm 0,0 km/h (0 Bft) W-SW 247 -4,5 C 0,0 km/h (0 Bft)
10.12.2015 02:40 -3,5 C -3,8 C 90 % 1037,8 hPa 0,0 mm 0,0 km/h (0 Bft) W-SW 247 -4,9 C 0,0 km/h (0 Bft)
10.12.2015 02:45 -3,6 C -3,9 C 90 % 1037,8 hPa 0,0 mm 0,0 km/h (0 Bft) W-SW 247 -5,0 C 0,0 km/h (0 Bft)
10.12.2015 02:50 -3,3 C -3,7 C 90 % 1037,8 hPa 0,0 mm 0,0 km/h (0 Bft) S 180 -4,7 C 0,0 km/h (0 Bft)
10.12.2015 02:55 -3,2 C -3,6 C 90 % 1037,7 hPa 0,0 mm 0,0 km/h (0 Bft) S-SO 157 -4,6 C 0,0 km/h (0 Bft)
10.12.2015 03:00 -2,8 C -3,2 C 90 % 1037,7 hPa 0,0 mm 0,0 km/h (0 Bft) W 270 -4,2 C 0,0 km/h (0 Bft)
10.12.2015 03:05 -2,9 C -3,2 C 90 % 1037,7 hPa 0,0 mm 0,0 km/h (0 Bft) W 270 -4,3 C 0,0 km/h (0 Bft)
10.12.2015 03:10 -3,1 C -3,4 C 90 % 1037,7 hPa 0,0 mm 0,0 km/h (0 Bft) W-NW 292 -4,5 C 0,0 km/h (0 Bft)
10.12.2015 03:15 -3,1 C -3,4 C 90 % 1037,5 hPa 0,0 mm 0,0 km/h (0 Bft) W-NW 292 -4,5 C 0,0 km/h (0 Bft)
10.12.2015 03:20 -3,1 C -3,4 C 90 % 1037,5 hPa 0,0 mm 0,0 km/h (0 Bft) W-NW 292 -4,5 C 0,0 km/h (0 Bft)
10.12.2015 03:25 -3,2 C -3,5 C 90 % 1037,5 hPa 0,0 mm 0,0 km/h (0 Bft) W-NW 292 -4,6 C 0,0 km/h (0 Bft)
10.12.2015 03:30 -2,9 C -3,2 C 90 % 1037,5 hPa 0,0 mm 0,3 km/h (0 Bft) NW 315 -4,3 C 0,0 km/h (0 Bft)
10.12.2015 03:35 -3,1 C -3,4 C 90 % 1037,3 hPa 0,0 mm 0,3 km/h (0 Bft) NW 315 -4,5 C 0,0 km/h (0 Bft)
10.12.2015 03:40 -3,3 C -3,5 C 90 % 1037,3 hPa 0,0 mm 0,0 km/h (0 Bft) NW 315 -4,7 C 0,0 km/h (0 Bft)
10.12.2015 03:45 -3,2 C -3,5 C 90 % 1037,3 hPa 0,0 mm 0,0 km/h (0 Bft) W 270 -4,6 C 0,0 km/h (0 Bft)
10.12.2015 03:50 -3,2 C -3,5 C 90 % 1037,3 hPa 0,0 mm 0,0 km/h (0 Bft) W-NW 292 -4,6 C 0,0 km/h (0 Bft)
10.12.2015 03:55 -3,5 C -3,7 C 90 % 1037,0 hPa 0,0 mm 0,0 km/h (0 Bft) NW 315 -4,9 C 0,0 km/h (0 Bft)
10.12.2015 04:00 -3,6 C -3,8 C 90 % 1037,0 hPa 0,0 mm 0,0 km/h (0 Bft) W-NW 292 -5,0 C 0,0 km/h (0 Bft)
10.12.2015 04:05 -3,5 C -3,8 C 90 % 1037,0 hPa 0,0 mm 0,0 km/h (0 Bft) NW 315 -4,9 C 0,0 km/h (0 Bft)
10.12.2015 04:10 -3,5 C -3,8 C 90 % 1037,0 hPa 0,0 mm 0,0 km/h (0 Bft) W-NW 292 -4,9 C 0,0 km/h (0 Bft)
10.12.2015 04:15 -3,6 C -3,9 C 90 % 1036,8 hPa 0,0 mm 0,0 km/h (0 Bft) W-NW 292 -5,0 C 0,0 km/h (0 Bft)
10.12.2015 04:20 -3,9 C -4,2 C 90 % 1036,8 hPa 0,0 mm 0,0 km/h (0 Bft) N-NW 337 -5,3 C 0,0 km/h (0 Bft)
10.12.2015 04:25 -3,8 C -4,1 C 90 % 1036,8 hPa 0,0 mm 0,0 km/h (0 Bft) N-NW 337 -5,2 C 0,0 km/h (0 Bft)
10.12.2015 04:30 -3,8 C -4,1 C 90 % 1036,8 hPa 0,0 mm 0,0 km/h (0 Bft) NW 315 -5,2 C 0,0 km/h (0 Bft)
10.12.2015 04:35 -3,6 C -4,0 C 90 % 1036,7 hPa 0,0 mm 0,3 km/h (0 Bft) NW 315 -5,0 C 0,0 km/h (0 Bft)
10.12.2015 04:40 -3,2 C -3,6 C 90 % 1036,7 hPa 0,0 mm 0,5 km/h (0 Bft) N-NO 22 -4,6 C 6,0 km/h (2 Bft)
10.12.2015 04:45 -3,2 C -3,5 C 90 % 1036,7 hPa 0,0 mm 0,3 km/h (0 Bft) N-NO 22 -4,6 C 0,0 km/h (0 Bft)
10.12.2015 04:50 -3,5 C -3,8 C 90 % 1036,7 hPa 0,0 mm 0,0 km/h (0 Bft) N-NW 337 -4,9 C 0,0 km/h (0 Bft)
10.12.2015 04:55 -3,6 C -3,9 C 90 % 1036,5 hPa 0,0 mm 0,0 km/h (0 Bft) NW 315 -5,0 C 0,0 km/h (0 Bft)
10.12.2015 05:00 -3,7 C -4,0 C 90 % 1036,5 hPa 0,0 mm 0,0 km/h (0 Bft) NW 315 -5,1 C 0,0 km/h (0 Bft)
10.12.2015 05:05 -3,8 C -4,1 C 90 % 1036,5 hPa 0,0 mm 0,0 km/h (0 Bft) NW 315 -5,2 C 0,0 km/h (0 Bft)
10.12.2015 05:10 -4,0 C -4,3 C 90 % 1036,5 hPa 0,0 mm 0,0 km/h (0 Bft) NW 315 -5,4 C 0,0 km/h (0 Bft)
10.12.2015 05:15 -4,0 C -4,3 C 90 % 1036,5 hPa 0,0 mm 0,0 km/h (0 Bft) NW 315 -5,4 C 0,0 km/h (0 Bft)
10.12.2015 05:20 -3,9 C -4,3 C 90 % 1036,5 hPa 0,0 mm 0,3 km/h (0 Bft) W 270 -5,3 C 0,0 km/h (0 Bft)
10.12.2015 05:25 -4,0 C -4,3 C 90 % 1036,5 hPa 0,0 mm 0,3 km/h (0 Bft) W 270 -5,4 C 0,0 km/h (0 Bft)
10.12.2015 05:30 -3,5 C -4,1 C 90 % 1036,5 hPa 0,0 mm 0,0 km/h (0 Bft) W 270 -4,9 C 0,0 km/h (0 Bft)
10.12.2015 05:35 -3,6 C -4,1 C 90 % 1036,5 hPa 0,0 mm 0,0 km/h (0 Bft) W 270 -5,0 C 0,0 km/h (0 Bft)
10.12.2015 05:40 -3,4 C -3,8 C 90 % 1036,5 hPa 0,0 mm 0,5 km/h (0 Bft) W 270 -4,8 C 0,0 km/h (0 Bft)
10.12.2015 05:45 -3,3 C -3,7 C 90 % 1036,5 hPa 0,0 mm 0,5 km/h (0 Bft) W 270 -4,7 C 0,0 km/h (0 Bft)
10.12.2015 05:50 -3,4 C -3,8 C 90 % 1036,5 hPa 0,0 mm 0,0 km/h (0 Bft) W 270 -4,8 C 0,0 km/h (0 Bft)
10.12.2015 05:55 -3,2 C -3,7 C 90 % 1036,5 hPa 0,0 mm 0,0 km/h (0 Bft) W 270 -4,6 C 0,0 km/h (0 Bft)
10.12.2015 06:00 -3,5 C -3,9 C 90 % 1036,5 hPa 0,0 mm 0,0 km/h (0 Bft) NW 315 -4,9 C 0,0 km/h (0 Bft)
10.12.2015 06:05 -3,5 C -3,9 C 90 % 1036,5 hPa 0,0 mm 0,0 km/h (0 Bft) NW 315 -4,9 C 0,0 km/h (0 Bft)
10.12.2015 06:10 -2,9 C -3,4 C 91 % 1036,5 hPa 0,0 mm 1,0 km/h (0 Bft) S 180 -4,2 C 7,0 km/h (2 Bft)
10.12.2015 06:12 -2,9 C -3,4 C 91 % 1036,5 hPa 0,0 mm 1,0 km/h (0 Bft) S 180 -4,2 C 4,4 km/h (1 Bft)
10.12.2015 06:15 -2,9 C -3,3 C 91 % 1036,4 hPa 0,0 mm 1,6 km/h (1 Bft) S 180 -4,2 C 0,0 km/h (0 Bft)
10.12.2015 06:20 -3,5 C -3,7 C 90 % 1036,4 hPa 0,0 mm 1,0 km/h (0 Bft) W-SW 247 -4,9 C 7,3 km/h (2 Bft)
10.12.2015 06:25 -3,1 C -3,4 C 91 % 1036,4 hPa 0,0 mm 1,6 km/h (1 Bft) W-SW 247 -4,4 C 5,7 km/h (1 Bft)
10.12.2015 06:30 -3,4 C -3,6 C 90 % 1036,4 hPa 0,0 mm 1,6 km/h (1 Bft) SW 225 -4,8 C 0,0 km/h (0 Bft)
10.12.2015 06:35 -3,2 C -3,6 C 90 % 1036,4 hPa 0,0 mm 0,5 km/h (0 Bft) SW 225 -4,6 C 0,0 km/h (0 Bft)
10.12.2015 06:40 -3,4 C -3,7 C 90 % 1036,4 hPa 0,0 mm 0,0 km/h (0 Bft) W-SW 247 -4,8 C 0,0 km/h (0 Bft)
10.12.2015 06:45 -3,3 C -3,7 C 90 % 1036,4 hPa 0,0 mm 0,0 km/h (0 Bft) S 180 -4,7 C 0,0 km/h (0 Bft)
10.12.2015 06:50 -3,2 C -3,6 C 91 % 1036,4 hPa 0,0 mm 0,0 km/h (0 Bft) W-NW 292 -4,5 C 0,0 km/h (0 Bft)
10.12.2015 06:55 -3,0 C -3,5 C 91 % 1036,6 hPa 0,0 mm 0,0 km/h (0 Bft) W-SW 247 -4,3 C 0,0 km/h (0 Bft)
10.12.2015 07:00 -3,5 C -3,9 C 90 % 1036,6 hPa 0,0 mm 0,0 km/h (0 Bft) W 270 -4,9 C 0,0 km/h (0 Bft)
10.12.2015 07:05 -3,5 C -3,9 C 90 % 1036,6 hPa 0,0 mm 0,0 km/h (0 Bft) W 270 -4,9 C 0,0 km/h (0 Bft)
10.12.2015 07:10 -3,7 C -4,1 C 90 % 1036,6 hPa 0,0 mm 0,0 km/h (0 Bft) W 270 -5,1 C 0,0 km/h (0 Bft)
10.12.2015 07:15 -3,9 C -4,3 C 90 % 1036,7 hPa 0,0 mm 0,0 km/h (0 Bft) W 270 -5,3 C 0,0 km/h (0 Bft)
10.12.2015 07:20 -3,8 C -4,3 C 90 % 1036,7 hPa 0,0 mm 0,0 km/h (0 Bft) W 270 -5,2 C 0,0 km/h (0 Bft)
10.12.2015 07:25 -4,2 C -4,6 C 90 % 1036,7 hPa 0,0 mm 0,0 km/h (0 Bft) W 270 -5,6 C 0,0 km/h (0 Bft)
10.12.2015 07:30 -4,1 C -4,6 C 90 % 1036,7 hPa 0,0 mm 0,0 km/h (0 Bft) W 270 -5,5 C 0,0 km/h (0 Bft)
10.12.2015 07:35 -4,0 C -4,5 C 90 % 1036,5 hPa 0,0 mm 0,0 km/h (0 Bft) W 270 -5,4 C 0,0 km/h (0 Bft)
10.12.2015 07:40 -3,6 C -4,2 C 90 % 1036,5 hPa 0,0 mm 0,0 km/h (0 Bft) W 270 -5,0 C 0,0 km/h (0 Bft)
10.12.2015 07:45 -4,1 C -4,6 C 90 % 1036,5 hPa 0,0 mm 0,0 km/h (0 Bft) W 270 -5,5 C 0,0 km/h (0 Bft)
10.12.2015 07:50 -4,3 C -4,7 C 90 % 1036,5 hPa 0,0 mm 0,0 km/h (0 Bft) W 270 -5,7 C 0,0 km/h (0 Bft)
10.12.2015 07:55 -4,3 C -4,8 C 90 % 1036,6 hPa 0,0 mm 0,0 km/h (0 Bft) W 270 -5,7 C 0,0 km/h (0 Bft)
10.12.2015 08:00 -4,4 C -4,9 C 90 % 1036,6 hPa 0,0 mm 0,0 km/h (0 Bft) W 270 -5,8 C 0,0 km/h (0 Bft)
10.12.2015 08:05 -4,5 C -5,0 C 90 % 1036,6 hPa 0,0 mm 0,0 km/h (0 Bft) W-NW 292 -5,9 C 0,0 km/h (0 Bft)
10.12.2015 08:10 -4,4 C -4,9 C 90 % 1036,6 hPa 0,0 mm 0,0 km/h (0 Bft) W-NW 292 -5,8 C 0,0 km/h (0 Bft)
10.12.2015 08:15 -4,6 C -4,9 C 90 % 1036,3 hPa 0,0 mm 0,0 km/h (0 Bft) W-NW 292 -6,0 C 0,0 km/h (0 Bft)
10.12.2015 08:20 -4,5 C -4,8 C 90 % 1036,3 hPa 0,0 mm 0,0 km/h (0 Bft) W-NW 292 -5,9 C 0,0 km/h (0 Bft)
10.12.2015 08:25 -4,0 C -4,4 C 86 % 1036,3 hPa 0,0 mm 0,0 km/h (0 Bft) W-SW 247 -6,0 C 0,0 km/h (0 Bft)
10.12.2015 08:30 -4,2 C -4,6 C 90 % 1036,3 hPa 0,0 mm 0,0 km/h (0 Bft) W-SW 247 -5,6 C 0,0 km/h (0 Bft)
10.12.2015 08:35 -4,0 C -4,4 C 90 % 1036,5 hPa 0,0 mm 0,0 km/h (0 Bft) W-SW 247 -5,4 C 0,0 km/h (0 Bft)
10.12.2015 08:40 -4,3 C -4,6 C 90 % 1036,5 hPa 0,0 mm 0,0 km/h (0 Bft) W 270 -5,7 C 0,0 km/h (0 Bft)
10.12.2015 08:45 -4,3 C -4,6 C 90 % 1036,5 hPa 0,0 mm 0,0 km/h (0 Bft) W 270 -5,7 C 0,0 km/h (0 Bft)
10.12.2015 08:50 -4,1 C -4,5 C 90 % 1036,5 hPa 0,0 mm 0,0 km/h (0 Bft) W-NW 292 -5,5 C 0,0 km/h (0 Bft)
10.12.2015 08:55 -4,0 C -4,2 C 86 % 1036,3 hPa 0,0 mm 0,0 km/h (0 Bft) NW 315 -6,0 C 0,0 km/h (0 Bft)
10.12.2015 09:00 -3,8 C -4,2 C 90 % 1036,3 hPa 0,0 mm 0,0 km/h (0 Bft) W-SW 247 -5,2 C 0,0 km/h (0 Bft)
10.12.2015 09:05 -3,6 C -4,0 C 90 % 1036,3 hPa 0,0 mm 0,0 km/h (0 Bft) W 270 -5,0 C 0,0 km/h (0 Bft)
10.12.2015 09:10 -3,7 C -4,1 C 90 % 1036,3 hPa 0,0 mm 0,0 km/h (0 Bft) W-SW 247 -5,1 C 0,0 km/h (0 Bft)
10.12.2015 09:15 -3,6 C -3,9 C 90 % 1036,5 hPa 0,0 mm 0,0 km/h (0 Bft) W 270 -5,0 C 0,0 km/h (0 Bft)
10.12.2015 09:20 -3,5 C -3,8 C 91 % 1036,5 hPa 0,0 mm 0,0 km/h (0 Bft) NW 315 -4,8 C 0,0 km/h (0 Bft)
10.12.2015 09:25 -3,2 C -3,6 C 91 % 1036,5 hPa 0,0 mm 0,0 km/h (0 Bft) W-SW 247 -4,5 C 0,0 km/h (0 Bft)
10.12.2015 09:30 -2,9 C -3,3 C 91 % 1036,5 hPa 0,0 mm 0,3 km/h (0 Bft) N-NW 337 -4,2 C 0,0 km/h (0 Bft)
10.12.2015 09:35 -2,8 C -3,0 C 87 % 1036,0 hPa 0,0 mm 0,3 km/h (0 Bft) SO 135 -4,7 C 0,0 km/h (0 Bft)
10.12.2015 09:40 -2,5 C -2,7 C 87 % 1036,0 hPa 0,0 mm 0,0 km/h (0 Bft) N-NO 22 -4,4 C 0,0 km/h (0 Bft)
10.12.2015 09:45 -2,8 C -3,0 C 91 % 1036,0 hPa 0,0 mm 0,0 km/h (0 Bft) N-NO 22 -4,1 C 0,0 km/h (0 Bft)
10.12.2015 09:50 -2,6 C -2,8 C 91 % 1036,0 hPa 0,0 mm 0,5 km/h (0 Bft) O-NO 67 -3,9 C 0,0 km/h (0 Bft)
10.12.2015 09:55 -2,2 C -2,4 C 92 % 1036,0 hPa 0,0 mm 0,8 km/h (0 Bft) NW 315 -3,3 C 4,7 km/h (1 Bft)
10.12.2015 10:00 -2,2 C -2,4 C 92 % 1036,0 hPa 0,0 mm 0,8 km/h (0 Bft) W 270 -3,3 C 0,0 km/h (0 Bft)
10.12.2015 10:05 -2,1 C -2,3 C 92 % 1036,0 hPa 0,0 mm 1,0 km/h (0 Bft) W-NW 292 -3,2 C 0,0 km/h (0 Bft)
10.12.2015 10:10 -2,2 C -2,4 C 92 % 1036,0 hPa 0,0 mm 0,5 km/h (0 Bft) W 270 -3,3 C 0,0 km/h (0 Bft)
10.12.2015 10:15 -1,6 C -2,0 C 92 % 1036,1 hPa 0,0 mm 0,0 km/h (0 Bft) W 270 -2,7 C 0,0 km/h (0 Bft)
10.12.2015 10:20 -1,5 C -1,9 C 92 % 1036,1 hPa 0,0 mm 0,0 km/h (0 Bft) W 270 -2,6 C 0,0 km/h (0 Bft)
10.12.2015 10:25 -1,3 C -1,8 C 92 % 1036,1 hPa 0,0 mm 0,0 km/h (0 Bft) W 270 -2,4 C 0,0 km/h (0 Bft)
10.12.2015 10:30 -1,6 C -1,9 C 92 % 1036,1 hPa 0,0 mm 0,0 km/h (0 Bft) W 270 -2,7 C 0,0 km/h (0 Bft)
10.12.2015 10:35 -1,6 C -1,9 C 92 % 1036,1 hPa 0,0 mm 0,0 km/h (0 Bft) W 270 -2,7 C 0,0 km/h (0 Bft)
10.12.2015 10:40 -1,4 C -1,8 C 92 % 1036,1 hPa 0,0 mm 0,0 km/h (0 Bft) W 270 -2,5 C 0,0 km/h (0 Bft)
10.12.2015 10:45 -1,2 C -1,6 C 92 % 1036,1 hPa 0,0 mm 0,0 km/h (0 Bft) W 270 -2,3 C 0,0 km/h (0 Bft)
10.12.2015 10:50 -1,3 C -1,7 C 92 % 1036,1 hPa 0,0 mm 0,0 km/h (0 Bft) W-SW 247 -2,4 C 0,0 km/h (0 Bft)
10.12.2015 10:55 -1,4 C -1,7 C 92 % 1036,0 hPa 0,0 mm 0,0 km/h (0 Bft) W 270 -2,5 C 0,0 km/h (0 Bft)
10.12.2015 11:00 -1,6 C -1,8 C 92 % 1036,0 hPa 0,0 mm 0,0 km/h (0 Bft) N-NW 337 -2,7 C 0,0 km/h (0 Bft)
10.12.2015 11:05 -1,5 C -1,7 C 92 % 1036,0 hPa 0,0 mm 0,0 km/h (0 Bft) N-NW 337 -2,6 C 0,0 km/h (0 Bft)
10.12.2015 11:10 -1,0 C -1,4 C 92 % 1036,0 hPa 0,0 mm 0,0 km/h (0 Bft) N-NO 22 -2,1 C 0,0 km/h (0 Bft)
10.12.2015 11:15 -1,1 C -1,4 C 92 % 1035,6 hPa 0,0 mm 0,0 km/h (0 Bft) O-SO 112 -2,2 C 0,0 km/h (0 Bft)
10.12.2015 11:20 -0,9 C -1,2 C 92 % 1035,6 hPa 0,0 mm 0,0 km/h (0 Bft) NW 315 -2,0 C 0,0 km/h (0 Bft)
10.12.2015 11:25 -1,0 C -1,2 C 92 % 1035,6 hPa 0,0 mm 0,0 km/h (0 Bft) W 270 -2,1 C 0,0 km/h (0 Bft)
10.12.2015 11:30 -0,4 C -0,8 C 93 % 1035,6 hPa 0,0 mm 0,0 km/h (0 Bft) W-SW 247 -1,4 C 0,0 km/h (0 Bft)
10.12.2015 11:35 -0,6 C -0,9 C 93 % 1035,6 hPa 0,0 mm 0,0 km/h (0 Bft) W-SW 247 -1,6 C 0,0 km/h (0 Bft)
10.12.2015 11:40 -0,1 C -0,5 C 93 % 1035,6 hPa 0,0 mm 0,0 km/h (0 Bft) W-SW 247 -1,1 C 0,0 km/h (0 Bft)
10.12.2015 11:45 0,0 C -0,5 C 93 % 1035,6 hPa 0,0 mm 0,0 km/h (0 Bft) W-SW 247 -1,0 C 0,0 km/h (0 Bft)
10.12.2015 11:50 -0,2 C -0,6 C 93 % 1035,6 hPa 0,0 mm 0,0 km/h (0 Bft) W-SW 247 -1,2 C 0,0 km/h (0 Bft)
10.12.2015 11:55 0,0 C -0,4 C 93 % 1035,2 hPa 0,0 mm 0,0 km/h (0 Bft) W-SW 247 -1,0 C 0,0 km/h (0 Bft)
10.12.2015 12:00 0,0 C -0,4 C 93 % 1035,2 hPa 0,0 mm 0,0 km/h (0 Bft) SW 225 -1,0 C 0,0 km/h (0 Bft)
10.12.2015 12:05 0,2 C -0,2 C 93 % 1035,2 hPa 0,0 mm 0,0 km/h (0 Bft) SO 135 -0,8 C 0,0 km/h (0 Bft)
10.12.2015 12:10 0,0 C -0,3 C 93 % 1035,2 hPa 0,0 mm 0,0 km/h (0 Bft) S-SO 157 -1,0 C 0,0 km/h (0 Bft)
10.12.2015 12:11 0,2 C -0,2 C 93 % 1035,1 hPa 0,0 mm 0,0 km/h (0 Bft) O-SO 112 -0,8 C 0,0 km/h (0 Bft)
10.12.2015 12:14 0,2 C -0,2 C 93 % 1035,1 hPa 0,0 mm 0,0 km/h (0 Bft) O-SO 112 -0,8 C 0,0 km/h (0 Bft)
10.12.2015 12:15 0,2 C -0,2 C 93 % 1035,1 hPa 0,0 mm 0,0 km/h (0 Bft) O-SO 112 -0,8 C 0,0 km/h (0 Bft)
10.12.2015 12:20 0,5 C 0,1 C 93 % 1035,1 hPa 0,0 mm 0,0 km/h (0 Bft) S-SO 157 -0,5 C 0,0 km/h (0 Bft)
10.12.2015 12:25 0,9 C 0,3 C 93 % 1035,1 hPa 0,0 mm 0,0 km/h (0 Bft) S-SO 157 -0,1 C 0,0 km/h (0 Bft)
10.12.2015 12:30 1,0 C 0,4 C 93 % 1035,1 hPa 0,0 mm 0,0 km/h (0 Bft) S-SO 157 -0,0 C 0,0 km/h (0 Bft)
10.12.2015 12:35 1,4 C 0,7 C 93 % 1034,7 hPa 0,0 mm 0,0 km/h (0 Bft) S 180 0,4 C 0,0 km/h (0 Bft)
10.12.2015 12:40 1,6 C 0,9 C 93 % 1034,7 hPa 0,0 mm 0,0 km/h (0 Bft) S 180 0,6 C 0,0 km/h (0 Bft)
10.12.2015 12:45 1,2 C 0,6 C 92 % 1034,7 hPa 0,0 mm 0,0 km/h (0 Bft) O-SO 112 0,0 C 0,0 km/h (0 Bft)
10.12.2015 12:50 0,9 C 0,4 C 92 % 1034,7 hPa 0,0 mm 0,0 km/h (0 Bft) O-NO 67 -0,2 C 0,0 km/h (0 Bft)
10.12.2015 12:55 1,4 C 0,7 C 91 % 1034,5 hPa 0,0 mm 0,0 km/h (0 Bft) O-NO 67 0,1 C 0,0 km/h (0 Bft)
10.12.2015 13:00 1,3 C 0,7 C 91 % 1034,5 hPa 0,0 mm 0,0 km/h (0 Bft) SO 135 -0,0 C 0,0 km/h (0 Bft)
10.12.2015 13:05 1,5 C 0,8 C 90 % 1034,5 hPa 0,0 mm 0,0 km/h (0 Bft) SO 135 0,0 C 0,0 km/h (0 Bft)
10.12.2015 13:10 1,4 C 0,7 C 89 % 1034,5 hPa 0,0 mm 0,0 km/h (0 Bft) SO 135 -0,2 C 0,0 km/h (0 Bft)
10.12.2015 13:15 1,6 C 0,9 C 89 % 1034,2 hPa 0,0 mm 0,0 km/h (0 Bft) SO 135 -0,0 C 0,0 km/h (0 Bft)
10.12.2015 13:20 1,8 C 1,0 C 88 % 1034,2 hPa 0,0 mm 0,0 km/h (0 Bft) SO 135 0,0 C 0,0 km/h (0 Bft)
10.12.2015 13:25 1,9 C 1,1 C 88 % 1034,2 hPa 0,0 mm 0,0 km/h (0 Bft) SO 135 0,1 C 0,0 km/h (0 Bft)
10.12.2015 13:30 2,2 C 1,3 C 86 % 1034,2 hPa 0,0 mm 0,0 km/h (0 Bft) S-SO 157 0,1 C 0,0 km/h (0 Bft)
10.12.2015 13:35 2,4 C 1,5 C 86 % 1033,9 hPa 0,0 mm 0,0 km/h (0 Bft) SO 135 0,3 C 0,0 km/h (0 Bft)
10.12.2015 13:40 2,0 C 1,4 C 84 % 1033,9 hPa 0,0 mm 0,0 km/h (0 Bft) O-NO 67 -0,4 C 0,0 km/h (0 Bft)
10.12.2015 13:45 2,2 C 2,1 C 85 % 1033,9 hPa 0,0 mm 0,0 km/h (0 Bft) S 180 -0,1 C 0,0 km/h (0 Bft)
10.12.2015 13:50 2,8 C 4,6 C 85 % 1033,9 hPa 0,0 mm 0,3 km/h (0 Bft) O-SO 112 0,5 C 0,0 km/h (0 Bft)
10.12.2015 13:55 2,9 C 5,9 C 85 % 1033,6 hPa 0,0 mm 0,3 km/h (0 Bft) O-SO 112 0,6 C 0,0 km/h (0 Bft)
10.12.2015 14:00 2,8 C 7,3 C 85 % 1033,6 hPa 0,0 mm 0,3 km/h (0 Bft) O-SO 112 0,5 C 0,0 km/h (0 Bft)
10.12.2015 14:05 2,6 C 7,2 C 84 % 1033,6 hPa 0,0 mm 0,3 km/h (0 Bft) O-SO 112 0,2 C 0,0 km/h (0 Bft)
10.12.2015 14:10 2,6 C 7,2 C 84 % 1033,6 hPa 0,0 mm 0,0 km/h (0 Bft) O 90 0,2 C 0,0 km/h (0 Bft)
10.12.2015 14:15 2,6 C 6,1 C 84 % 1033,6 hPa 0,0 mm 0,0 km/h (0 Bft) O 90 0,2 C 0,0 km/h (0 Bft)
10.12.2015 14:20 2,5 C 5,3 C 84 % 1033,6 hPa 0,0 mm 0,0 km/h (0 Bft) O-NO 67 0,1 C 0,0 km/h (0 Bft)
10.12.2015 14:25 2,2 C 5,7 C 84 % 1033,6 hPa 0,0 mm 0,0 km/h (0 Bft) O-NO 67 -0,2 C 0,0 km/h (0 Bft)
10.12.2015 14:30 2,1 C 4,8 C 84 % 1033,6 hPa 0,0 mm 0,0 km/h (0 Bft) SO 135 -0,3 C 0,0 km/h (0 Bft)
10.12.2015 14:35 2,5 C 3,8 C 84 % 1033,2 hPa 0,0 mm 0,0 km/h (0 Bft) O-SO 112 0,1 C 0,0 km/h (0 Bft)
10.12.2015 14:40 2,5 C 3,9 C 84 % 1033,2 hPa 0,0 mm 0,0 km/h (0 Bft) O 90 0,1 C 0,0 km/h (0 Bft)
10.12.2015 14:45 2,2 C 5,0 C 83 % 1033,2 hPa 0,0 mm 0,0 km/h (0 Bft) O-NO 67 -0,4 C 0,0 km/h (0 Bft)
10.12.2015 14:50 1,8 C 5,1 C 83 % 1033,2 hPa 0,0 mm 0,0 km/h (0 Bft) SO 135 -0,8 C 0,0 km/h (0 Bft)
10.12.2015 14:55 2,3 C 5,6 C 84 % 1033,3 hPa 0,0 mm 0,0 km/h (0 Bft) SO 135 -0,1 C 0,0 km/h (0 Bft)
10.12.2015 15:00 2,8 C 6,8 C 85 % 1033,3 hPa 0,0 mm 0,0 km/h (0 Bft) SO 135 0,5 C 0,0 km/h (0 Bft)
10.12.2015 15:05 2,8 C 6,1 C 85 % 1033,3 hPa 0,0 mm 0,3 km/h (0 Bft) SO 135 0,5 C 0,0 km/h (0 Bft)
10.12.2015 15:10 2,7 C 4,4 C 84 % 1033,3 hPa 0,0 mm 0,3 km/h (0 Bft) O-SO 112 0,3 C 0,0 km/h (0 Bft)
10.12.2015 15:15 2,7 C 3,5 C 84 % 1033,0 hPa 0,0 mm 0,3 km/h (0 Bft) SO 135 0,3 C 0,0 km/h (0 Bft)
10.12.2015 15:20 2,3 C 2,6 C 84 % 1033,0 hPa 0,0 mm 0,8 km/h (0 Bft) S 180 -0,1 C 0,0 km/h (0 Bft)
10.12.2015 15:25 2,4 C 2,3 C 84 % 1033,0 hPa 0,0 mm 1,3 km/h (1 Bft) W-SW 247 -0,0 C 6,2 km/h (2 Bft)
10.12.2015 15:30 2,2 C 2,1 C 83 % 1033,0 hPa 0,0 mm 1,6 km/h (1 Bft) S-SO 157 -0,4 C 0,0 km/h (0 Bft)
10.12.2015 15:35 2,1 C 1,9 C 83 % 1033,1 hPa 0,0 mm 1,6 km/h (1 Bft) S 180 -0,5 C 0,0 km/h (0 Bft)
10.12.2015 15:40 2,1 C 1,8 C 82 % 1033,1 hPa 0,0 mm 2,3 km/h (1 Bft) S-SW 202 -0,6 C 9,3 km/h (2 Bft)
10.12.2015 15:45 1,9 C 1,7 C 82 % 1033,1 hPa 0,0 mm 3,9 km/h (1 Bft) S 180 -0,8 C 4,7 km/h (1 Bft)
10.12.2015 15:50 1,5 C 1,3 C 82 % 1033,1 hPa 0,0 mm 4,1 km/h (1 Bft) S-SO 157 -1,2 C 3,6 km/h (1 Bft)
10.12.2015 15:55 1,3 C 1,0 C 82 % 1033,0 hPa 0,0 mm 4,7 km/h (1 Bft) S-SW 202 -1,4 C 8,5 km/h (2 Bft)
10.12.2015 16:00 1,0 C 0,6 C 82 % 1033,0 hPa 0,0 mm 4,9 km/h (1 Bft) S-SW 202 -1,7 C 9,8 km/h (2 Bft)
10.12.2015 16:05 0,7 C 0,6 C 79 % 1033,0 hPa 0,0 mm 3,1 km/h (1 Bft) W-SW 247 -2,5 C 0,0 km/h (0 Bft)
10.12.2015 16:10 0,6 C 0,2 C 83 % 1033,0 hPa 0,0 mm 0,5 km/h (0 Bft) SW 225 -1,9 C 0,0 km/h (0 Bft)
10.12.2015 16:15 0,5 C 0,1 C 83 % 1033,3 hPa 0,0 mm 0,3 km/h (0 Bft) SW 225 -2,0 C 3,1 km/h (1 Bft)
10.12.2015 16:20 0,4 C -0,1 C 84 % 1033,3 hPa 0,0 mm 0,3 km/h (0 Bft) S-SO 157 -2,0 C 0,0 km/h (0 Bft)
10.12.2015 16:25 0,2 C -0,3 C 84 % 1033,3 hPa 0,0 mm 0,3 km/h (0 Bft) S-SO 157 -2,2 C 0,0 km/h (0 Bft)
10.12.2015 16:30 -0,4 C -0,9 C 83 % 1033,3 hPa 0,0 mm 0,3 km/h (0 Bft) S-SO 157 -2,9 C 0,0 km/h (0 Bft)
10.12.2015 16:35 -0,9 C -1,4 C 83 % 1032,8 hPa 0,0 mm 0,0 km/h (0 Bft) S-SO 157 -3,4 C 0,0 km/h (0 Bft)
10.12.2015 16:40 -0,8 C -1,4 C 83 % 1032,8 hPa 0,0 mm 0,0 km/h (0 Bft) NW 315 -3,3 C 0,0 km/h (0 Bft)
10.12.2015 16:45 -1,0 C -1,5 C 83 % 1032,8 hPa 0,0 mm 0,0 km/h (0 Bft) N-NW 337 -3,5 C 0,0 km/h (0 Bft)
10.12.2015 16:50 -1,1 C -1,6 C 84 % 1032,8 hPa 0,0 mm 0,3 km/h (0 Bft) NW 315 -3,4 C 0,0 km/h (0 Bft)
10.12.2015 16:55 -0,8 C -1,4 C 84 % 1032,7 hPa 0,0 mm 0,3 km/h (0 Bft) N-NO 22 -3,2 C 0,0 km/h (0 Bft)
10.12.2015 17:00 -0,4 C -1,1 C 85 % 1032,7 hPa 0,0 mm 0,5 km/h (0 Bft) NO 45 -2,6 C 0,0 km/h (0 Bft)
10.12.2015 17:05 -0,5 C -1,2 C 86 % 1032,7 hPa 0,0 mm 0,5 km/h (0 Bft) SO 135 -2,5 C 0,0 km/h (0 Bft)
10.12.2015 17:10 -0,9 C -1,5 C 85 % 1032,7 hPa 0,0 mm 0,0 km/h (0 Bft) SW 225 -3,1 C 0,0 km/h (0 Bft)
10.12.2015 17:15 -1,0 C -1,6 C 85 % 1032,5 hPa 0,0 mm 0,0 km/h (0 Bft) SW 225 -3,2 C 0,0 km/h (0 Bft)
10.12.2015 17:20 -1,5 C -2,1 C 85 % 1032,5 hPa 0,0 mm 0,0 km/h (0 Bft) SW 225 -3,7 C 0,0 km/h (0 Bft)
10.12.2015 17:25 -1,7 C -2,3 C 85 % 1032,5 hPa 0,0 mm 0,0 km/h (0 Bft) SW 225 -3,9 C 0,0 km/h (0 Bft)
10.12.2015 17:30 -1,7 C -2,3 C 85 % 1032,5 hPa 0,0 mm 0,0 km/h (0 Bft) SO 135 -3,9 C 0,0 km/h (0 Bft)
10.12.2015 17:35 -1,9 C -2,4 C 85 % 1032,2 hPa 0,0 mm 0,0 km/h (0 Bft) SO 135 -4,1 C 0,0 km/h (0 Bft)
10.12.2015 17:40 -2,4 C -2,8 C 85 % 1032,2 hPa 0,0 mm 0,0 km/h (0 Bft) SO 135 -4,6 C 0,0 km/h (0 Bft)
10.12.2015 17:45 -2,0 C -2,6 C 85 % 1032,2 hPa 0,0 mm 0,0 km/h (0 Bft) SO 135 -4,2 C 0,0 km/h (0 Bft)
10.12.2015 17:50 -1,5 C -2,3 C 87 % 1032,2 hPa 0,0 mm 0,0 km/h (0 Bft) S-SW 202 -3,4 C 3,1 km/h (1 Bft)
10.12.2015 17:55 -1,3 C -2,1 C 87 % 1032,4 hPa 0,0 mm 0,5 km/h (0 Bft) SW 225 -3,2 C 0,0 km/h (0 Bft)
10.12.2015 18:00 -1,0 C -1,7 C 81 % 1032,4 hPa 0,0 mm 1,6 km/h (1 Bft) S 180 -3,8 C 0,0 km/h (0 Bft)
10.12.2015 18:05 -1,7 C -2,3 C 87 % 1032,4 hPa 0,0 mm 1,0 km/h (0 Bft) W-SW 247 -3,6 C 2,6 km/h (1 Bft)
10.12.2015 18:10 -2,1 C -2,6 C 86 % 1032,4 hPa 0,0 mm 0,5 km/h (0 Bft) W 270 -4,1 C 0,0 km/h (0 Bft)
10.12.2015 18:11 -1,8 C -2,5 C 87 % 1032,2 hPa 0,0 mm 0,5 km/h (0 Bft) S 180 -3,7 C 0,0 km/h (0 Bft)
10.12.2015 18:15 -1,8 C -2,5 C 87 % 1032,2 hPa 0,0 mm 0,5 km/h (0 Bft) S 180 -3,7 C 0,0 km/h (0 Bft)
10.12.2015 18:20 -2,4 C -2,9 C 86 % 1032,2 hPa 0,0 mm 0,0 km/h (0 Bft) S 180 -4,4 C 0,0 km/h (0 Bft)
10.12.2015 18:25 -2,8 C -3,2 C 86 % 1032,2 hPa 0,0 mm 0,0 km/h (0 Bft) O-SO 112 -4,8 C 0,0 km/h (0 Bft)
10.12.2015 18:30 -2,1 C -2,8 C 86 % 1032,2 hPa 0,0 mm 0,0 km/h (0 Bft) O-SO 112 -4,1 C 2,8 km/h (1 Bft)
10.12.2015 18:35 -2,2 C -2,8 C 87 % 1032,2 hPa 0,0 mm 0,0 km/h (0 Bft) O-SO 112 -4,1 C 0,0 km/h (0 Bft)
10.12.2015 18:40 -2,7 C -3,1 C 86 % 1032,2 hPa 0,0 mm 0,0 km/h (0 Bft) O-SO 112 -4,7 C 0,0 km/h (0 Bft)
10.12.2015 18:45 -3,1 C -3,4 C 86 % 1032,2 hPa 0,0 mm 0,0 km/h (0 Bft) SO 135 -5,1 C 0,0 km/h (0 Bft)
10.12.2015 18:50 -2,2 C -2,8 C 87 % 1032,2 hPa 0,0 mm 0,0 km/h (0 Bft) O-SO 112 -4,1 C 0,0 km/h (0 Bft)
10.12.2015 18:55 -2,0 C -2,7 C 88 % 1032,3 hPa 0,0 mm 0,0 km/h (0 Bft) O-SO 112 -3,7 C 0,0 km/h (0 Bft)
10.12.2015 19:00 -2,4 C -2,9 C 87 % 1032,3 hPa 0,0 mm 0,0 km/h (0 Bft) O-SO 112 -4,3 C 0,0 km/h (0 Bft)
10.12.2015 19:05 -2,7 C -3,1 C 87 % 1032,3 hPa 0,0 mm 0,0 km/h (0 Bft) O-SO 112 -4,6 C 0,0 km/h (0 Bft)
10.12.2015 19:10 -2,6 C -3,1 C 87 % 1032,3 hPa 0,0 mm 0,0 km/h (0 Bft) O-SO 112 -4,5 C 0,0 km/h (0 Bft)
10.12.2015 19:15 -3,1 C -3,5 C 87 % 1032,2 hPa 0,0 mm 0,0 km/h (0 Bft) O-SO 112 -4,9 C 0,0 km/h (0 Bft)
10.12.2015 19:20 -3,3 C -3,8 C 86 % 1032,2 hPa 0,0 mm 0,0 km/h (0 Bft) O-SO 112 -5,3 C 0,0 km/h (0 Bft)
10.12.2015 19:25 -3,1 C -3,7 C 87 % 1032,2 hPa 0,0 mm 0,0 km/h (0 Bft) O-SO 112 -4,9 C 0,0 km/h (0 Bft)
10.12.2015 19:30 -3,5 C -3,9 C 86 % 1032,2 hPa 0,0 mm 0,0 km/h (0 Bft) O-SO 112 -5,5 C 0,0 km/h (0 Bft)
10.12.2015 19:35 -3,0 C -3,6 C 87 % 1032,2 hPa 0,0 mm 0,0 km/h (0 Bft) O-SO 112 -4,9 C 0,0 km/h (0 Bft)
10.12.2015 19:40 -2,6 C -3,3 C 88 % 1032,2 hPa 0,0 mm 0,3 km/h (0 Bft) SO 135 -4,3 C 0,0 km/h (0 Bft)
10.12.2015 19:45 -2,7 C -3,3 C 88 % 1032,2 hPa 0,0 mm 0,3 km/h (0 Bft) SO 135 -4,4 C 0,0 km/h (0 Bft)
10.12.2015 19:50 -3,1 C -3,6 C 88 % 1032,2 hPa 0,0 mm 0,0 km/h (0 Bft) S-SO 157 -4,8 C 0,0 km/h (0 Bft)
10.12.2015 19:55 -2,8 C -3,2 C 82 % 1032,0 hPa 0,0 mm 0,0 km/h (0 Bft) SO 135 -5,4 C 0,0 km/h (0 Bft)
10.12.2015 20:00 -2,4 C -3,1 C 88 % 1032,0 hPa 0,0 mm 0,0 km/h (0 Bft) S 180 -4,1 C 0,0 km/h (0 Bft)
10.12.2015 20:05 -2,7 C -3,3 C 88 % 1032,0 hPa 0,0 mm 0,0 km/h (0 Bft) S 180 -4,4 C 0,0 km/h (0 Bft)
10.12.2015 20:10 -2,8 C -3,4 C 88 % 1032,0 hPa 0,0 mm 0,3 km/h (0 Bft) SW 225 -4,5 C 0,0 km/h (0 Bft)
10.12.2015 20:15 -2,6 C -3,2 C 88 % 1031,9 hPa 0,0 mm 1,0 km/h (0 Bft) SW 225 -4,3 C 0,0 km/h (0 Bft)
10.12.2015 20:20 -2,9 C -3,2 C 88 % 1031,9 hPa 0,0 mm 2,6 km/h (1 Bft) S-SO 157 -4,6 C 0,0 km/h (0 Bft)
10.12.2015 20:25 -2,5 C -2,9 C 82 % 1031,9 hPa 0,0 mm 2,3 km/h (1 Bft) S 180 -5,1 C 5,2 km/h (1 Bft)
10.12.2015 20:30 -2,3 C -2,8 C 87 % 1031,9 hPa 0,0 mm 1,3 km/h (1 Bft) SO 135 -4,2 C 4,1 km/h (1 Bft)
10.12.2015 20:35 -2,5 C -2,9 C 81 % 1032,0 hPa 0,0 mm 1,3 km/h (1 Bft) W-SW 247 -5,3 C 0,0 km/h (0 Bft)
10.12.2015 20:40 -3,5 C -3,7 C 85 % 1032,0 hPa 0,0 mm 1,3 km/h (1 Bft) S-SO 157 -5,6 C 4,4 km/h (1 Bft)
10.12.2015 20:45 -3,3 C -3,6 C 85 % 1032,0 hPa 0,0 mm 1,0 km/h (0 Bft) SO 135 -5,5 C 0,0 km/h (0 Bft)
10.12.2015 20:50 -3,4 C -3,5 C 80 % 1032,0 hPa 0,0 mm 0,5 km/h (0 Bft) S-SO 157 -6,3 C 0,0 km/h (0 Bft)
10.12.2015 20:55 -2,6 C -2,8 C 81 % 1032,2 hPa 0,0 mm 0,5 km/h (0 Bft) S 180 -5,4 C 3,9 km/h (1 Bft)
10.12.2015 21:00 -2,8 C -3,2 C 85 % 1032,2 hPa 0,0 mm 1,3 km/h (1 Bft) S-SO 157 -5,0 C 4,7 km/h (1 Bft)
10.12.2015 21:05 -2,4 C -2,6 C 81 % 1032,2 hPa 0,0 mm 2,8 km/h (1 Bft) S-SO 157 -5,2 C 6,0 km/h (2 Bft)
10.12.2015 21:10 -1,7 C -2,3 C 84 % 1032,2 hPa 0,0 mm 3,4 km/h (1 Bft) SO 135 -4,0 C 2,8 km/h (1 Bft)
10.12.2015 21:15 -2,9 C -3,1 C 83 % 1032,2 hPa 0,0 mm 2,1 km/h (1 Bft) SO 135 -5,4 C 0,0 km/h (0 Bft)
10.12.2015 21:20 -1,9 C -2,0 C 80 % 1032,2 hPa 0,0 mm 2,3 km/h (1 Bft) S 180 -4,9 C 5,2 km/h (1 Bft)
10.12.2015 21:25 -1,4 C -1,8 C 80 % 1032,2 hPa 0,0 mm 2,8 km/h (1 Bft) S 180 -4,4 C 2,8 km/h (1 Bft)
10.12.2015 21:30 -1,1 C -1,8 C 79 % 1032,2 hPa 0,0 mm 4,4 km/h (1 Bft) SW 225 -4,3 C 9,1 km/h (2 Bft)
10.12.2015 21:35 -0,9 C -1,8 C 79 % 1032,4 hPa 0,0 mm 5,7 km/h (1 Bft) W-SW 247 -4,1 C 5,4 km/h (1 Bft)
10.12.2015 21:40 -2,1 C -2,3 C 78 % 1032,4 hPa 0,0 mm 3,6 km/h (1 Bft) S-SO 157 -5,4 C 10,4 km/h (2 Bft)
10.12.2015 21:45 -2,1 C -2,4 C 78 % 1032,4 hPa 0,0 mm 1,8 km/h (1 Bft) SW 225 -5,4 C 8,3 km/h (2 Bft)
10.12.2015 21:50 -3,4 C -3,3 C 77 % 1032,4 hPa 0,0 mm 1,3 km/h (1 Bft) S-SO 157 -6,8 C 3,4 km/h (1 Bft)
10.12.2015 21:55 -3,2 C -3,4 C 78 % 1032,2 hPa 0,0 mm 1,3 km/h (1 Bft) SO 135 -6,5 C 0,0 km/h (0 Bft)
10.12.2015 22:00 -3,3 C -3,5 C 79 % 1032,2 hPa 0,0 mm 1,0 km/h (0 Bft) N-NW 337 -6,4 C 5,2 km/h (1 Bft)
10.12.2015 22:05 -3,4 C -3,7 C 79 % 1032,2 hPa 0,0 mm 0,5 km/h (0 Bft) N-NO 22 -6,5 C 0,0 km/h (0 Bft)
10.12.2015 22:10 -3,6 C -3,9 C 79 % 1032,2 hPa 0,0 mm 0,3 km/h (0 Bft) O-NO 67 -6,7 C 0,0 km/h (0 Bft)
10.12.2015 22:15 -3,5 C -3,9 C 80 % 1032,2 hPa 0,0 mm 0,0 km/h (0 Bft) O-NO 67 -6,4 C 0,0 km/h (0 Bft)
10.12.2015 22:20 -3,1 C -3,7 C 81 % 1032,2 hPa 0,0 mm 0,3 km/h (0 Bft) O-NO 67 -5,9 C 0,0 km/h (0 Bft)
10.12.2015 22:25 -3,7 C -4,1 C 81 % 1032,2 hPa 0,0 mm 0,3 km/h (0 Bft) O-NO 67 -6,5 C 0,0 km/h (0 Bft)
10.12.2015 22:30 -3,5 C -4,0 C 82 % 1032,2 hPa 0,0 mm 0,0 km/h (0 Bft) O-NO 67 -6,1 C 0,0 km/h (0 Bft)
10.12.2015 22:35 -3,8 C -4,2 C 81 % 1031,9 hPa 0,0 mm 0,0 km/h (0 Bft) O-NO 67 -6,6 C 0,0 km/h (0 Bft)
10.12.2015 22:40 -4,1 C -4,5 C 81 % 1031,9 hPa 0,0 mm 0,0 km/h (0 Bft) O-NO 67 -6,9 C 0,0 km/h (0 Bft)
10.12.2015 22:45 -4,3 C -4,6 C 81 % 1031,9 hPa 0,0 mm 0,0 km/h (0 Bft) O-NO 67 -7,1 C 0,0 km/h (0 Bft)
10.12.2015 22:50 -4,1 C -4,6 C 82 % 1031,9 hPa 0,0 mm 0,0 km/h (0 Bft) O-NO 67 -6,7 C 0,0 km/h (0 Bft)
10.12.2015 22:55 -3,5 C -4,2 C 83 % 1031,8 hPa 0,0 mm 0,0 km/h (0 Bft) O-NO 67 -6,0 C 0,0 km/h (0 Bft)
10.12.2015 23:00 -4,0 C -4,5 C 83 % 1031,8 hPa 0,0 mm 0,0 km/h (0 Bft) NO 45 -6,4 C 0,0 km/h (0 Bft)
10.12.2015 23:05 -3,9 C -4,5 C 83 % 1031,8 hPa 0,0 mm 0,0 km/h (0 Bft) NO 45 -6,4 C 0,0 km/h (0 Bft)
10.12.2015 23:10 -4,1 C -4,6 C 83 % 1031,8 hPa 0,0 mm 0,0 km/h (0 Bft) O-NO 67 -6,5 C 0,0 km/h (0 Bft)
10.12.2015 23:15 -4,3 C -4,7 C 83 % 1031,6 hPa 0,0 mm 0,0 km/h (0 Bft) O-NO 67 -6,7 C 0,0 km/h (0 Bft)
10.12.2015 23:20 -4,6 C -5,0 C 83 % 1031,6 hPa 0,0 mm 0,0 km/h (0 Bft) NO 45 -7,0 C 0,0 km/h (0 Bft)
10.12.2015 23:25 -4,5 C -5,0 C 83 % 1031,6 hPa 0,0 mm 0,0 km/h (0 Bft) O-NO 67 -6,9 C 0,0 km/h (0 Bft)
10.12.2015 23:30 -4,5 C -5,0 C 83 % 1031,6 hPa 0,0 mm 0,0 km/h (0 Bft) N-NO 22 -6,9 C 0,0 km/h (0 Bft)
10.12.2015 23:35 -4,5 C -4,9 C 83 % 1031,7 hPa 0,0 mm 0,0 km/h (0 Bft) N-NW 337 -6,9 C 0,0 km/h (0 Bft)
10.12.2015 23:40 -4,6 C -5,0 C 83 % 1031,7 hPa 0,0 mm 0,0 km/h (0 Bft) N-NW 337 -7,0 C 0,0 km/h (0 Bft)
10.12.2015 23:45 -4,5 C -5,0 C 83 % 1031,7 hPa 0,0 mm 0,0 km/h (0 Bft) N-NW 337 -6,9 C 0,0 km/h (0 Bft)
10.12.2015 23:50 -4,6 C -5,1 C 83 % 1031,7 hPa 0,0 mm 0,0 km/h (0 Bft) N-NW 337 -7,0 C 0,0 km/h (0 Bft)
10.12.2015 23:55 -4,8 C -5,2 C 83 % 1031,5 hPa 0,0 mm 0,0 km/h (0 Bft) N-NW 337 -7,2 C 0,0 km/h (0 Bft)
_ Min-Zeit 23:55 23:55 21:50 23:55 - 23:55 - - 23:55 23:55
Minimum _ -4,8 C -5,2 C 77 % 1031,5 hPa - 0,0 km/h (0 Bft) - - -7,2 C 0,0 km/h (0 Bft)
_ Max-Zeit 13:55 14:00 12:40 00:30 23:55 21:35 - - 13:55 21:40
Maximum _ 2,9 C 7,3 C 93 % 1038,8 hPa 0,0 mm 5,7 km/h
W-SW (1 Bft)
- - 0,6 C 10,4 km/h
S-SO (2 Bft)
Durchschnitt _ -1,9 C -2,1 C 88 % 1034,9 hPa #0,0 mm 0,3 km/h (0 Bft) S-SO - -3,7 C 0,6 km/h (0 Bft)